{"data":{"norad_id":58866,"epoch":"2026-05-24T10:58:52.150656Z","epoch_age_seconds":118566,"freshness":"FRESH","line1":"1 58866U 24019P   26144.45754804  .00000613  00000+0  31793-4 0  9999","line2":"2 58866  43.0005 180.7246 0001197 276.9216  83.1499 15.27587862130656","mean_motion":15.27587862,"eccentricity":0.0001197,"inclination_deg":43.0005,"raan_deg":180.7246,"arg_perigee_deg":276.9216,"mean_anomaly_deg":83.1499,"bstar":3.1793e-5,"rev_number":13065,"period_min":94.266263553225,"perigee_km":482.20427332651,"apogee_km":483.84683564205,"semimajor_km":6861.1625544843,"source":"CELESTRAK","updated_at":"2026-05-25T13:38:18.760004Z"}}